RH
19 18 18 19 18 18 18 18 19 19 19 18 18 16 17 20 20 22 24 26 27 28 29 29 32 34 33 33 31 30 30 33 32 35 36 37 40 37 37 40 40 38 35 32 25 20 21 21 20 21 23 23 23 24 22 22 23 23 21 20 20 21 22 24 25 25 26 29 35 39 38 37 34 32 28 25 23 22 22 24 31 37 38 37 36 34 32 33 33 32 30 28 28 28 28 29 29
20 19 19 19 19 19 19 19 20 21 19 19 18 15 16 19 20 21 24 27 30 31 31 31 32 34 33 32 32 33 35 37 33 32 34 38 42 42 41 42 41 40 37 33 26 21 21 20 20 21 22 23 23 23 22 23 24 25 23 21 20 20 21 24 24 24 26 28 33 37 36 34 33 31 27 23 21 20 20 22 28 36 36 36 37 35 33 32 33 33 31 28 24 22 21 21 22
20 20 20 20 20 21 21 20 22 22 20 19 17 15 15 17 18 20 23 26 33 36 33 30 31 33 32 33 33 35 39 38 32 31 35 38 40 41 42 41 40 39 38 35 29 22 20 20 19 20 22 23 22 22 23 24 24 25 24 21 20 19 20 23 24 23 24 27 31 34 33 31 29 27 24 21 20 19 19 20 27 34 35 34 35 34 33 32 32 31 30 26 22 20 19 20 20
20 21 21 21 21 22 23 22 24 23 21 20 17 15 14 15 17 19 20 22 30 37 35 33 33 33 31 34 34 35 39 37 30 28 31 35 35 37 40 39 39 38 36 36 31 23 20 19 19 20 21 22 22 22 23 25 25 25 24 21 20 19 20 21 22 21 22 24 28 31 29 26 24 23 23 21 21 19 19 18 23 31 33 32 32 32 31 30 29 28 25 22 21 22 23 24 22
20 20 21 21 22 22 23 23 24 23 21 21 18 15 13 14 17 19 19 21 23 26 29 34 35 33 32 35 36 35 36 35 31 28 27 32 35 35 37 37 38 38 36 36 32 23 20 19 19 21 21 22 22 22 24 26 26 25 24 22 21 20 20 19 19 19 20 21 24 27 26 24 23 22 21 22 21 20 20 19 20 26 31 31 31 30 27 25 24 23 21 21 21 22 25 26 26
19 19 20 20 21 22 22 22 22 22 21 21 19 16 14 12 17 19 18 21 21 20 25 34 36 35 36 36 36 34 33 32 30 30 27 31 36 35 36 36 37 38 37 36 30 22 20 19 20 21 22 22 22 23 25 26 27 26 24 23 22 21 19 18 17 17 19 19 22 25 26 25 23 21 20 21 21 21 21 20 20 24 30 31 30 28 24 21 19 19 19 21 21 22 25 26 28
20 20 21 21 21 22 23 23 21 21 20 20 19 17 16 12 15 20 19 20 20 19 24 31 33 35 38 35 35 35 34 33 29 29 28 30 36 36 36 36 36 37 37 34 27 22 20 19 21 22 23 23 23 25 26 27 28 27 25 24 24 21 19 17 15 15 17 19 21 24 26 26 24 22 20 20 21 21 21 21 21 23 27 29 27 25 23 20 17 16 17 19 21 21 24 27 28
20 21 22 23 22 22 23 22 21 20 19 19 19 17 17 14 14 19 20 20 19 19 25 30 31 35 39 35 36 37 35 34 29 27 28 29 34 36 37 36 36 37 35 31 25 22 21 21 23 24 24 24 25 27 27 28 29 28 26 25 25 22 19 17 14 13 16 18 21 24 26 26 24 23 21 20 20 21 22 22 21 22 24 25 25 23 21 19 17 15 15 17 19 20 22 26 29
22 22 23 24 23 23 23 22 21 20 19 18 18 17 17 16 15 17 19 20 18 19 26 29 28 33 40 39 39 38 35 33 29 27 28 30 34 36 38 37 36 37 34 28 24 23 23 23 24 25 25 25 27 28 28 29 29 29 28 27 25 23 20 16 14 12 14 18 20 24 26 26 25 24 22 20 20 20 21 22 22 22 22 23 23 22 20 18 17 15 14 15 17 19 20 23 27
23 23 23 23 23 23 22 22 21 20 18 18 18 17 17 17 16 15 17 19 18 22 28 27 29 33 38 42 41 38 35 32 29 30 30 30 33 35 38 37 37 38 35 27 23 24 24 25 25 25 25 27 29 29 29 30 30 30 29 28 26 23 20 16 14 12 12 17 20 23 26 27 26 24 23 22 22 21 21 21 21 21 21 21 21 21 20 18 16 15 14 14 15 18 20 21 23
23 23 22 22 22 21 21 20 19 19 18 18 18 17 17 17 17 15 15 17 18 25 29 27 33 37 39 42 42 38 34 32 30 31 32 32 34 36 37 37 37 37 36 29 24 25 26 26 25 24 24 27 30 30 30 31 31 31 29 28 27 24 21 16 14 12 12 16 20 23 27 28 27 25 23 23 23 23 22 21 22 21 21 21 20 20 19 17 16 15 14 14 14 16 19 21 21
20 21 21 21 20 19 18 18 17 18 17 17 16 16 16 16 17 16 15 15 19 29 29 26 32 36 40 44 42 40 36 34 31 31 33 32 35 38 38 37 36 36 34 30 25 26 26 26 25 23 24 26 29 30 31 33 33 32 30 28 27 24 22 17 15 13 12 16 20 23 27 28 28 26 24 23 24 25 24 22 22 22 22 21 21 20 19 19 17 16 15 14 15 16 18 20 21
17 17 17 18 18 16 16 16 15 16 15 14 14 15 16 16 16 16 16 14 18 28 26 25 29 32 40 43 42 42 38 36 34 33 34 33 36 39 38 37 36 35 33 29 26 27 27 27 26 24 24 26 29 30 32 34 33 32 30 28 27 26 24 20 16 14 12 15 20 23 28 29 28 27 25 24 24 25 25 24 23 23 24 23 22 21 20 20 19 18 18 16 16 16 18 19 21
13 14 14 14 14 13 13 13 13 14 13 12 13 14 15 15 15 15 16 15 16 21 21 25 28 31 40 42 42 41 39 38 35 34 35 35 37 37 37 37 37 35 33 29 26 27 27 27 27 25 25 26 28 30 33 35 34 32 30 28 28 27 26 23 18 15 13 15 20 23 28 29 29 28 26 25 25 26 26 25 24 24 25 26 25 24 23 23 22 22 21 21 20 20 20 21 21
12 12 12 13 12 11 10 10 10 10 10 11 11 12 13 15 15 14 14 14 16 19 21 28 28 28 38 40 39 39 39 38 36 35 35 35 36 36 36 38 38 37 35 29 26 27 27 27 27 25 25 26 28 31 34 35 33 31 29 28 28 28 28 25 21 17 13 16 20 24 28 30 30 28 27 26 26 27 27 26 25 25 27 28 29 28 28 27 27 26 25 25 25 25 24 23 23
11 12 12 12 12 11 11 9 9 10 9 8 9 10 12 13 13 13 13 12 18 23 23 28 27 24 29 31 32 37 38 36 35 36 35 35 36 34 35 38 40 41 39 33 27 26 27 28 26 24 25 25 27 31 34 34 32 29 27 28 28 29 29 26 23 18 15 17 21 25 29 31 31 30 29 28 28 29 29 27 27 26 27 29 29 30 30 30 30 29 27 27 27 26 25 24 24
11 11 12 13 12 11 11 10 9 10 8 7 8 9 11 12 13 13 13 13 19 24 22 24 26 22 23 24 28 35 38 35 35 36 35 36 35 32 34 38 41 45 44 39 31 26 27 27 26 24 25 26 28 31 34 33 31 28 26 28 30 31 30 27 24 19 17 20 24 29 35 37 36 34 33 31 31 32 32 29 28 27 28 29 28 28 29 29 30 29 26 26 26 26 25 24 24
11 11 12 12 11 10 9 9 9 9 9 8 9 9 11 12 13 13 13 14 18 23 24 24 24 21 23 25 28 34 36 34 34 34 34 33 32 31 33 36 41 46 45 40 32 26 26 26 25 25 24 26 29 32 33 31 29 26 26 29 31 31 30 27 23 20 22 27 31 36 40 39 38 37 34 34 36 37 35 32 32 34 35 34 32 32 33 32 32 31 30 31 31 30 30 30 30
12 11 11 11 9 8 8 8 9 9 9 8 10 11 10 11 12 12 12 14 19 29 34 31 25 23 26 29 31 34 34 34 33 32 31 30 30 30 32 34 38 44 44 39 30 25 25 25 24 24 24 26 30 33 32 30 27 26 28 30 32 31 28 25 24 25 30 36 38 41 41 38 37 36 36 38 42 42 39 37 38 40 40 37 35 36 37 37 38 38 37 39 40 39 38 39 39
12 11 11 9 8 8 7 8 8 8 8 8 11 12 11 12 12 13 13 15 22 33 38 36 33 30 30 32 35 37 36 35 33 31 29 29 29 29 30 33 37 41 44 38 28 24 25 25 24 24 25 28 31 32 31 28 25 26 30 31 31 29 26 25 29 32 36 39 41 43 42 40 37 37 42 47 48 46 43 42 39 38 37 34 33 34 35 37 40 41 42 41 43 42 40 40 40
13 12 11 9 8 8 7 8 7 7 8 8 10 11 12 12 12 14 14 16 22 28 28 28 29 31 33 36 38 39 38 36 33 30 29 30 30 29 29 33 38 42 45 40 30 28 30 28 26 27 29 30 31 30 28 26 25 28 32 32 30 26 25 28 32 35 36 38 40 41 40 39 38 40 47 51 49 46 44 41 37 36 35 32 32 33 34 35 37 40 41 40 41 40 38 37 36
13 11 10 9 9 8 7 8 8 7 8 9 9 10 11 12 13 14 14 15 18 19 19 20 21 25 30 36 39 39 38 37 35 32 30 32 32 32 30 33 39 45 49 42 33 33 35 33 30 29 29 30 30 28 26 24 25 29 32 32 29 27 27 30 33 34 37 38 39 39 39 40 42 48 52 50 47 45 42 38 34 34 33 31 31 31 32 33 35 38 39 39 38 36 34 33 33
13 12 10 10 9 9 8 8 8 8 7 8 9 10 11 12 14 14 14 15 14 12 13 16 18 21 26 32 36 38 38 37 37 36 34 35 37 38 35 34 39 49 56 46 35 34 35 34 32 30 29 28 28 27 25 24 26 30 32 31 29 28 30 33 36 37 39 41 39 38 40 44 48 52 52 49 47 43 39 36 33 32 30 28 28 28 30 31 32 35 36 36 35 33 31 30 31
12 12 11 10 10 10 10 9 9 9 9 8 9 10 11 13 14 13 13 13 12 11 13 15 16 20 25 30 32 35 38 40 43 45 44 43 43 44 41 37 39 51 60 52 42 41 41 39 35 31 29 27 26 26 25 24 27 31 32 31 31 33 36 37 38 39 39 38 36 37 42 47 50 51 51 49 46 41 39 36 33 32 28 26 26 27 28 28 29 32 34 34 32 30 29 29 30
12 11 11 11 11 10 10 10 10 10 10 10 10 11 11 12 12 12 12 12 11 11 16 18 18 22 26 27 30 35 39 45 51 53 52 52 52 51 49 44 44 53 60 59 55 53 50 47 41 35 31 28 25 25 26 27 29 32 33 32 34 39 42 40 38 38 36 34 36 40 45 51 51 51 49 47 45 41 39 36 33 31 27 25 27 28 28 28 28 29 31 30 28 27 25 25 25
12 11 11 11 11 11 12 12 11 11 11 11 12 12 12 12 12 12 11 12 11 11 17 20 21 25 28 29 31 36 42 50 56 58 57 59 60 58 55 51 50 56 62 62 62 61 57 53 47 41 36 32 27 28 30 31 32 33 34 35 39 43 44 42 41 39 37 39 43 44 48 53 52 49 47 45 43 42 41 37 32 29 27 26 28 29 29 28 28 28 28 27 26 25 23 22 22
13 12 12 11 12 12 12 12 12 12 12 12 13 13 12 12 12 12 11 12 11 13 20 23 23 26 30 33 36 44 52 56 57 58 61 66 67 63 59 56 54 59 65 65 64 66 64 57 49 45 42 38 35 34 35 35 35 35 36 40 43 46 45 44 44 44 43 46 46 44 50 55 52 49 46 43 41 41 40 36 31 29 27 27 29 29 28 28 28 28 28 28 27 25 23 22 21
14 14 14 12 12 12 12 12 12 13 13 13 13 13 13 13 12 11 11 13 12 15 24 27 27 31 35 36 41 49 54 58 61 62 66 71 73 70 65 58 54 57 64 72 74 71 68 59 50 48 47 45 43 41 39 37 37 37 40 44 47 47 47 47 48 49 47 48 48 50 56 55 52 49 46 45 42 39 37 34 31 29 27 28 29 28 27 28 29 28 27 26 26 25 23 22 21
14 14 14 13 12 11 11 11 11 12 13 13 14 13 12 12 12 10 11 12 11 17 27 31 32 35 35 34 39 45 47 57 66 67 73 79 80 79 72 61 56 55 60 72 79 74 70 63 54 53 52 52 50 47 44 40 38 40 43 48 51 51 51 51 50 49 48 50 54 59 59 54 51 49 46 47 44 36 33 31 30 28 28 28 28 28 27 27 27 27 24 23 24 23 22 21 20
14 14 14 14 13 11 11 11 10 11 12 13 13 13 12 11 11 10 11 11 10 20 30 32 33 34 33 31 36 43 49 56 57 57 65 73 79 81 77 70 67 63 60 66 73 72 68 64 61 59 57 56 53 49 47 44 42 45 47 50 53 53 53 52 49 47 46 52 59 62 60 55 53 50 47 49 43 35 30 30 30 30 29 29 30 30 28 27 26 25 24 23 23 23 22 21 21
15 15 15 15 15 13 11 10 10 10 10 12 13 13 12 11 12 10 11 10 10 22 31 32 32 33 31 32 36 42 50 57 56 55 60 65 71 77 77 76 74 70 67 68 72 73 69 67 65 62 61 58 53 51 50 48 48 50 51 52 54 54 53 50 47 45 48 56 61 62 60 57 56 51 47 48 44 35 31 30 30 30 31 31 30 29 28 27 26 25 25 25 24 24 23 22 22
15 16 16 15 15 15 12 11 11 10 10 11 12 13 12 12 11 9 11 10 11 24 33 32 32 33 32 34 38 41 46 55 58 58 61 64 67 71 74 73 73 74 72 72 75 77 73 69 66 64 64 60 54 53 50 50 51 52 54 52 53 54 51 47 45 46 52 59 61 61 60 57 56 52 50 53 48 38 32 30 30 30 31 30 29 28 28 28 26 27 26 26 24 24 24 23 22
16 16 17 15 14 14 13 11 11 10 10 11 11 13 11 11 11 9 11 11 14 27 33 32 33 33 33 34 38 39 42 52 58 57 57 60 62 66 72 70 70 72 73 73 75 76 73 69 65 63 63 57 54 53 50 51 52 51 52 50 52 52 48 45 46 50 57 62 61 58 57 56 54 53 56 57 49 39 33 29 29 30 29 29 29 28 28 27 27 27 26 25 24 24 25 24 22
17 16 16 16 14 14 13 12 12 11 12 11 11 12 10 13 18 16 14 12 18 31 34 33 34 34 33 33 37 39 42 49 56 57 56 59 61 63 69 69 68 70 73 73 72 73 72 70 67 64 61 56 54 53 51 53 52 50 50 48 49 48 45 46 49 55 62 64 60 55 55 55 55 56 59 56 46 37 31 30 31 29 28 29 29 28 28 28 27 27 25 24 24 25 26 25 23
17 17 16 16 14 14 13 12 12 11 13 12 13 13 10 17 27 26 21 16 21 32 34 35 36 34 34 34 38 43 46 48 50 52 56 63 65 65 68 69 67 69 72 70 68 69 70 72 71 65 62 59 54 54 56 56 50 46 45 44 46 46 47 50 53 60 64 61 57 54 55 57 59 60 59 52 43 34 30 31 32 30 30 31 29 28 27 27 26 26 24 23 24 26 28 28 26
16 16 15 15 13 13 12 12 12 11 13 14 15 14 12 22 33 31 28 25 26 33 36 38 38 36 39 42 45 48 48 48 46 47 54 63 66 67 69 68 67 69 71 69 68 71 72 73 72 66 65 63 58 58 60 56 48 42 41 41 44 48 51 54 58 63 63 58 55 54 56 58 59 58 54 46 36 31 31 32 32 31 31 29 27 26 25 26 25 24 23 22 24 27 29 28 27
15 15 15 14 13 13 12 12 12 12 13 14 15 15 13 24 35 33 32 32 33 36 38 41 40 39 44 48 50 50 50 49 48 50 55 61 66 70 71 69 68 70 71 69 68 72 75 75 71 67 69 69 67 66 61 54 46 43 44 45 47 51 56 60 64 65 62 57 54 54 56 54 53 53 51 41 32 31 31 31 30 30 28 26 25 25 25 27 25 24 24 25 26 28 29 28 27
15 16 15 14 13 12 11 11 11 12 14 13 14 15 14 24 35 35 34 35 36 37 40 44 43 44 47 49 51 51 52 54 54 58 61 60 64 72 77 74 72 73 72 69 69 73 75 74 70 69 73 74 74 73 65 57 50 46 48 50 53 58 63 66 66 63 59 56 54 55 55 54 54 53 47 37 31 30 30 29 27 25 25 24 24 25 25 25 24 24 24 26 28 29 30 30 29
17 16 16 16 14 12 12 11 11 12 13 13 15 15 15 24 34 35 34 36 37 38 39 41 43 45 46 47 49 49 53 56 56 59 62 61 64 73 78 78 78 76 72 71 73 74 74 71 69 71 75 77 77 75 69 63 58 54 55 58 61 65 67 68 65 61 59 57 55 56 57 58 56 51 42 35 31 27 25 25 24 23 23 23 23 24 24 24 25 25 25 26 29 30 31 32 31
18 18 17 17 15 14 13 12 13 13 14 14 16 16 18 29 35 34 36 37 37 38 40 40 40 41 43 44 46 47 50 53 54 57 60 63 68 73 76 79 80 77 72 71 73 72 70 70 70 71 75 78 77 74 71 68 64 62 64 66 68 69 68 67 65 63 62 58 55 57 62 61 54 46 39 33 28 23 22 23 23 24 24 23 24 24 24 25 25 26 26 28 29 29 30 32 32
18 17 17 16 15 14 13 14 14 15 15 14 17 18 21 32 36 36 39 40 39 40 41 42 41 42 44 46 49 50 51 51 53 57 59 62 69 71 75 78 78 75 69 68 70 71 69 69 71 72 74 76 74 73 71 70 68 67 70 71 72 72 69 67 66 65 64 61 60 63 63 58 51 43 36 29 25 22 22 23 24 26 26 25 25 25 26 27 27 28 29 30 31 29 31 33 33
18 17 17 16 16 14 14 16 16 17 16 14 18 20 21 30 35 37 40 41 42 42 42 42 42 42 43 47 51 52 52 52 54 58 58 60 66 70 72 74 75 73 68 65 68 70 70 70 72 72 72 72 72 72 71 71 73 72 73 72 71 71 69 69 69 66 63 63 64 63 59 54 47 38 31 27 24 23 22 24 26 27 27 27 26 27 28 28 28 29 31 32 32 32 32 33 33
17 16 16 16 16 15 15 17 18 19 18 17 18 20 27 36 37 38 42 43 43 43 43 43 42 43 42 44 48 50 52 55 57 59 60 61 65 69 70 70 71 71 66 63 67 71 70 68 69 69 69 70 70 70 70 73 74 74 74 72 70 70 69 71 72 66 64 65 64 63 59 50 40 32 27 25 24 23 24 27 29 29 28 28 27 29 30 29 30 32 34 34 34 34 34 33 33
16 15 16 16 16 15 16 17 18 19 19 20 19 21 36 48 44 41 44 47 48 46 44 43 43 44 44 44 47 50 54 57 59 61 63 64 63 65 68 69 69 68 65 61 64 68 66 62 64 66 68 70 70 70 73 74 73 74 75 73 73 73 72 73 71 66 67 68 67 67 58 42 32 28 26 25 24 25 28 30 31 30 29 29 29 30 30 31 33 35 36 36 36 36 34 33 32
15 15 16 17 17 17 18 18 18 20 21 22 22 23 35 50 53 51 52 52 52 49 44 43 44 44 46 48 50 52 55 58 59 61 65 65 64 64 65 67 68 68 65 60 61 64 61 61 66 68 70 73 74 74 75 74 72 75 76 74 75 77 76 72 68 66 71 72 70 64 51 37 31 28 25 25 26 28 31 32 31 31 30 30 30 30 31 32 33 34 36 37 37 35 34 32 31
14 15 16 16 17 19 20 20 20 22 25 26 25 25 36 55 63 60 60 58 52 48 45 44 46 47 48 49 50 52 54 57 59 63 68 70 71 69 66 67 70 69 65 61 62 63 62 65 69 72 73 75 75 76 75 74 74 75 76 75 74 76 76 72 69 71 73 72 67 57 45 37 32 29 27 29 30 31 32 31 32 32 31 31 31 31 33 33 33 34 37 36 35 34 32 30 30
15 16 16 16 18 20 22 24 23 26 32 32 26 25 35 56 67 60 54 50 44 44 47 45 46 49 50 49 50 52 52 55 60 65 69 72 75 75 70 70 71 69 66 64 65 65 65 67 70 72 74 75 75 75 76 76 76 76 76 73 72 74 74 72 71 71 70 67 62 52 43 37 33 30 30 30 30 31 31 32 32 32 31 32 32 32 33 33 35 36 36 35 33 32 30 29 29
17 16 16 18 21 22 23 25 27 29 35 34 27 24 28 42 58 57 45 39 37 40 43 45 46 50 53 51 51 53 54 56 60 63 66 70 75 77 73 71 69 67 67 67 66 67 68 69 69 71 73 75 75 75 76 75 75 76 74 71 71 71 72 73 71 69 66 62 58 51 43 37 32 31 30 29 30 31 32 33 33 32 33 32 32 32 33 35 37 37 35 33 31 30 29 29 28
18 17 17 20 24 25 24 28 34 35 33 30 27 26 26 29 39 45 40 36 34 35 37 42 45 48 51 50 50 53 57 59 61 64 68 71 73 74 72 69 67 66 66 66 66 66 67 68 69 70 72 75 75 75 74 71 70 74 73 72 72 71 72 71 68 66 63 59 56 50 43 35 31 31 30 29 30 32 34 34 34 34 34 33 33 34 35 37 37 35 32 31 30 30 29 28 27
19 18 18 21 25 27 28 31 36 35 30 29 27 26 27 26 27 33 36 33 31 33 38 40 43 46 48 47 48 51 56 60 63 68 72 72 70 71 70 67 65 64 63 62 63 63 65 67 68 69 72 75 75 73 70 68 70 72 73 74 74 73 72 67 65 64 60 56 54 49 42 35 32 31 30 30 33 35 35 35 35 35 34 34 35 36 36 37 36 33 32 31 30 30 29 28 27
19 18 19 21 23 27 32 35 36 34 30 29 26 25 28 27 26 30 31 31 32 34 40 45 48 50 49 48 49 51 56 60 65 70 73 72 70 71 70 65 63 65 62 60 60 61 63 65 66 68 71 73 72 69 69 72 73 73 74 75 75 72 68 64 62 60 56 54 53 49 43 37 34 32 32 33 36 36 36 36 36 35 35 36 36 37 36 35 34 32 31 31 31 30 29 28 27
19 18 19 20 22 29 33 34 38 37 30 29 29 29 31 29 30 34 33 34 37 36 41 49 51 51 51 51 52 54 58 60 63 68 70 72 72 72 70 64 63 68 66 61 60 60 62 64 66 70 71 70 68 68 72 76 75 75 76 75 74 71 67 61 57 54 53 53 51 49 43 36 36 35 35 36 36 37 37 37 37 37 37 38 38 37 36 34 33 31 31 31 30 30 29 27 26
22 20 19 18 22 31 33 31 36 37 32 32 30 28 32 31 31 37 38 40 43 39 43 50 50 51 53 53 56 57 59 60 61 64 67 70 73 72 69 65 64 67 66 63 63 63 64 66 69 70 69 65 65 69 74 76 76 76 76 74 73 71 66 59 53 50 51 51 50 48 41 37 38 38 37 37 37 38 39 38 38 39 39 39 38 36 35 33 32 32 32 31 30 30 28 26 26
23 21 19 19 21 28 36 34 34 38 39 38 32 27 31 30 31 38 42 44 47 45 47 51 50 50 52 55 59 59 60 62 61 63 67 69 70 69 69 68 65 64 62 63 65 65 65 67 69 67 64 64 67 71 73 76 78 77 74 75 74 69 62 55 51 50 50 50 49 46 41 39 41 39 38 38 38 39 39 39 41 41 41 41 39 36 35 34 33 33 32 31 31 30 27 26 26
22 21 19 20 22 26 33 33 32 37 38 36 34 31 31 32 36 42 42 44 50 51 51 51 48 49 50 55 60 59 60 62 61 63 66 67 67 67 68 69 65 61 61 62 63 64 65 67 68 66 66 69 70 70 71 73 76 76 74 75 72 65 57 52 51 51 50 50 49 46 43 42 41 39 39 40 42 42 42 42 42 42 42 41 39 38 37 36 35 34 33 31 30 28 26 25 25
22 22 20 21 25 26 27 28 29 33 36 39 38 34 32 34 37 39 41 45 50 52 52 49 44 45 48 52 56 57 58 60 61 63 66 66 65 65 66 67 64 62 61 61 60 62 65 67 66 67 70 72 69 67 68 69 72 75 75 73 68 60 53 51 51 51 50 49 48 45 44 43 41 40 42 44 46 46 46 45 43 42 41 40 40 41 39 38 38 36 34 30 28 26 24 24 23
22 22 22 21 22 22 25 28 27 27 37 45 44 40 37 35 35 35 39 45 48 50 50 46 43 43 46 49 50 51 56 60 61 62 65 65 64 65 68 68 66 65 62 60 60 62 66 67 66 69 72 71 68 67 68 67 67 70 70 66 60 54 51 51 50 49 50 49 45 44 44 43 42 43 45 46 47 48 47 45 42 40 40 40 41 42 42 41 40 38 34 29 26 22 21 20 19
23 23 24 23 22 23 28 32 26 26 36 39 39 43 41 34 34 35 36 41 45 46 45 43 43 43 45 47 46 49 56 59 60 63 66 66 66 67 68 68 67 64 61 60 60 62 65 66 67 70 71 70 69 69 69 68 67 66 64 60 55 51 51 51 50 50 50 47 44 44 44 44 45 46 47 47 47 46 45 44 41 39 39 39 40 42 44 43 41 39 34 28 23 18 16 16 13